Location: Unspecified
(0.0000°N, 0.0000°E)
Time: 00:48:28
(UTC+00:00)

Tiros 1 despin weight - Visible Passes

Search period start: 19 April 2019 00:00
Search period end: 29 April 2019 00:00
Orbit: 594 x 643 km, 48.2° (Epoch: 17 April)

Date Brightness Start Highest point End Pass type
(mag) Time Alt. Az. Time Alt. Az. Time Alt. Az.
20 Apr ? 19:22:21 10° S 19:24:32 22° S 19:24:32 22° S visible
21 Apr ? 19:38:21 10° SW 19:42:17 62° SSW 19:42:17 62° SSW visible
22 Apr ? 19:55:21 10° WSW 19:59:38 36° NW 20:00:29 33° NNW visible
23 Apr ? 18:30:21 10° SSW 18:34:50 46° SE 18:39:19 10° NE visible
23 Apr ? 20:13:50 10° W 20:16:17 14° NW 20:18:44 10° NNW visible
24 Apr ? 18:46:47 10° SW 18:51:25 64° NW 18:56:02 10° NNE visible
25 Apr ? 05:15:44 10° NNE 05:18:20 15° NE 05:20:55 10° E visible
25 Apr ? 19:04:15 10° WSW 19:08:01 24° NW 19:11:47 10° N visible
26 Apr ? 05:30:48 10° NNW 05:34:58 40° NE 05:39:07 10° ESE visible
28 Apr ? 04:23:13 10° N 04:26:46 23° NE 04:30:16 10° ESE visible
